KE9LZ-9 Weather Reports


time (UTC)temp
C
wind
direction
speed
KPH
gust
KPH
rain 1hr
cm
rain 24hr
cm
rain mn
cm
humidity
%
barometer
mb
20260506051003 1 26 1.6 1.6 0.00 0.00 0.00 69 1011.4
20260506045004 0 355 0.0 1.6 0.00 0.00 0.00 68 1011.1
20260506044004 0 315 0.0 1.6 0.00 0.00 0.00 70 1011.1
20260506043004 0 323 0.0 1.6 0.00 0.00 0.00 69 1011.0
20260506041003 0 351 0.0 1.6 0.00 0.00 0.00 68 1011.1
20260506040003 0 61 0.0 1.6 0.00 0.00 0.00 68 1010.9
20260506034004 -1 17 0.0 1.6 0.00 0.00 0.00 72 1010.8
20260506033004 0 1 1.6 3.2 0.00 0.00 0.00 73 1010.7
20260506031003 0 337 1.6 1.6 0.00 0.00 0.00 68 1010.5
20260506030003 0 354 0.0 1.6 0.00 0.00 0.00 66 1010.4
20260506025004 0 326 0.0 1.6 0.00 0.00 0.00 66 1010.4
20260506024003 1 20 1.6 3.2 0.00 0.00 0.00 63 1010.3
20260506023004 1 355 1.6 1.6 0.00 0.00 0.00 62 1010.2
20260506022003 1 313 0.0 1.6 0.00 0.00 0.00 59 1010.1
20260506021004 2 13 1.6 1.6 0.00 0.00 0.00 59 1010.0
20260506015004 3 346 0.0 1.6 0.00 0.00 0.00 53 1009.9
20260506014004 4 22 0.0 1.6 0.00 0.00 0.00 51 1009.8
20260506012003 5 73 1.6 9.7 0.00 0.00 0.00 45 1009.6
20260506011004 6 337 1.6 11.3 0.00 0.00 0.00 44 1009.6
20260506010004 6 332 3.2 16.1 0.00 0.00 0.00 44 1009.6
20260506005004 6 285 4.8 19.3 0.00 0.00 0.00 43 1009.4
20260506004004 6 358 3.2 11.3 0.00 0.00 0.00 43 1009.4
20260506003004 6 300 8.0 16.1 0.00 0.00 0.00 42 1009.5
20260506002004 6 321 8.0 12.9 0.00 0.00 0.00 42 1009.3
20260506001004 7 310 4.8 14.5 0.00 0.00 0.00 42 1009.1
20260506000003 7 337 4.8 19.3 0.00 0.00 0.00 42 1009.3
20260505235004 7 310 9.7 19.3 0.00 0.00 0.00 41 1009.0
20260505234004 7 302 8.0 24.1 0.00 0.00 0.00 41 1008.8
20260505233003 7 327 6.4 16.1 0.00 0.00 0.00 41 1008.6
20260505231004 7 1 4.8 20.9 0.00 0.00 0.00 41 1008.7
20260505230004 8 313 6.4 16.1 0.00 0.00 0.00 41 1008.5
20260505225004 8 40 8.0 22.5 0.00 0.00 0.00 40 1008.3
20260505224004 8 322 8.0 22.5 0.00 0.00 0.00 39 1008.3
20260505223004 8 312 9.7 24.1 0.00 0.00 0.00 39 1008.2
20260505222003 8 311 6.4 12.9 0.00 0.00 0.00 40 1008.2
20260505221004 8 333 9.7 20.9 0.00 0.00 0.00 40 1008.0
20260505215004 8 330 4.8 24.1 0.00 0.00 0.00 39 1007.8
20260505214003 8 299 8.0 27.4 0.00 0.00 0.00 38 1007.8
20260505212004 8 300 11.3 25.7 0.00 0.00 0.00 37 1007.9
20260505211003 8 277 9.7 29.0 0.00 0.00 0.00 37 1007.6
20260505210004 8 316 9.7 22.5 0.00 0.00 0.00 38 1007.6
20260505205004 9 284 8.0 32.2 0.00 0.00 0.00 37 1007.5
20260505204004 9 274 12.9 29.0 0.00 0.00 0.00 36 1007.5
20260505203004 8 342 8.0 19.3 0.00 0.00 0.00 37 1007.5
20260505202004 8 287 6.4 25.7 0.00 0.00 0.00 37 1007.4
20260505201004 8 278 8.0 25.7 0.00 0.00 0.00 37 1007.4
20260505200003 9 257 11.3 32.2 0.00 0.00 0.00 37 1007.3
20260505195004 9 299 6.4 22.5 0.00 0.00 0.00 37 1007.2
20260505193003 9 280 12.9 25.7 0.00 0.00 0.00 37 1006.9
20260505192004 10 284 3.2 27.4 0.00 0.00 0.00 38 1006.8
20260505191004 10 340 8.0 22.5 0.00 0.00 0.00 36 1006.8
20260505190004 10 319 9.7 19.3 0.00 0.00 0.00 38 1006.6
20260505185004 10 286 9.7 20.9 0.00 0.00 0.00 37 1006.8
20260505184003 10 331 8.0 22.5 0.00 0.00 0.00 36 1006.6
20260505183004 11 351 9.7 19.3 0.00 0.00 0.00 33 1006.3
20260505182004 10 299 9.7 32.2 0.00 0.00 0.00 37 1006.3
20260505181004 9 266 4.8 22.5 0.00 0.00 0.00 39 1006.3
20260505180004 10 334 6.4 20.9 0.00 0.00 0.00 40 1006.0
20260505175004 8 265 9.7 20.9 0.00 0.00 0.00 39 1006.1
20260505174004 8 274 8.0 22.5 0.00 0.00 0.00 40 1006.1
20260505172004 8 278 9.7 27.4 0.00 0.00 0.00 40 1005.8
20260505171003 8 279 8.0 29.0 0.00 0.00 0.00 41 1005.7
20260505165004 8 286 11.3 22.5 0.00 0.00 0.00 40 1005.7
20260505164004 7 255 16.1 35.4 0.00 0.00 0.00 42 1005.9
20260505163005 9 230 8.0 19.3 0.00 0.00 0.00 39 1005.5
20260505161004 8 266 9.7 29.0 0.00 0.00 0.00 43 1005.7
20260505153004 8 261 4.8 12.9 0.00 0.00 0.00 43 1005.9
20260505152003 8 211 8.0 25.7 0.00 0.00 0.00 44 1005.8
20260505125003 5 317 4.8 12.9 0.00 0.00 0.00 59 1005.1
20260505124004 4 301 4.8 11.3 0.00 0.00 0.00 61 1005.0
20260505123004 3 253 3.2 8.0 0.00 0.00 0.00 61 1005.1
20260505121004 3 260 4.8 11.3 0.00 0.00 0.00 62 1005.1
20260505120005 3 267 4.8 11.3 0.00 0.00 0.00 63 1005.1
20260505115004 2 258 1.6 8.0 0.00 0.00 0.00 65 1005.0
20260505114004 2 265 3.2 8.0 0.00 0.00 0.00 67 1004.9
20260505112004 1 269 1.6 8.0 0.00 0.00 0.00 68 1004.7
20260505111004 1 284 1.6 3.2 0.00 0.00 0.00 70 1004.5
20260505102004 0 330 1.6 3.2 0.00 0.00 0.00 68 1004.0
20260505101004 1 301 0.0 4.8 0.00 0.00 0.00 65 1004.1
20260505100003 1 289 3.2 3.2 0.00 0.00 0.00 66 1003.9
20260505095003 1 321 1.6 3.2 0.00 0.00 0.00 66 1003.7
20260505093004 2 308 1.6 4.8 0.00 0.00 0.00 62 1003.3
20260505092004 2 306 1.6 3.2 0.00 0.00 0.00 62 1003.3
20260505091004 2 292 1.6 8.0 0.00 0.00 0.00 61 1003.2
20260505090003 2 271 1.6 3.2 0.00 0.00 0.00 60 1003.2
20260505085004 2 278 1.6 4.8 0.00 0.00 0.00 59 1002.9
20260505084004 3 317 1.6 3.2 0.00 0.00 0.00 59 1002.9
20260505083003 3 308 1.6 3.2 0.00 0.00 0.00 56 1002.8
20260505082003 3 349 1.6 1.6 0.00 0.00 0.00 55 1002.9
20260505080004 5 292 1.6 4.8 0.00 0.00 0.00 51 1002.7
20260505075003 5 314 0.0 4.8 0.00 0.00 0.00 51 1002.8
20260505074004 5 305 1.6 8.0 0.00 0.00 0.00 50 1002.7
20260505073004 5 293 3.2 4.8 0.00 0.00 0.00 50 1002.7
20260505072004 5 24 1.6 4.8 0.00 0.00 0.00 51 1002.8
20260505071004 5 299 1.6 4.8 0.00 0.00 0.00 49 1002.9
20260505070004 5 308 4.8 9.7 0.00 0.00 0.00 49 1002.9
20260505065003 5 304 4.8 9.7 0.00 0.00 0.00 49 1002.8
20260505064004 5 342 3.2 14.5 0.00 0.00 0.00 49 1002.7
20260505063004 6 334 4.8 14.5 0.00 0.00 0.00 48 1002.7
20260505061004 6 294 3.2 8.0 0.00 0.00 0.00 49 1002.8